Regional Weather Roundup
Issued by NWS

Home | Current Version | Previous Version | Text Only | Print | Product List | Glossary Off
Versions: 1 2 3 4 5 6 7 8 9 10 11 12 13 14 15 16 17 18 19 20 21 22 23 24 25 26 27 28 29 30 31 32 33 34 35 36 37 38 39 40 41 42 43 44 45 46 47 48 49 50

000
ASUS45 KBOU 240210
RWRCO

WEATHER ROUNDUP FOR COLORADO
NATIONAL WEATHER SERVICE DENVER/BOULDER CO
800 PM MDT FRI SEP 23 2016

NOTE: "FAIR" INDICATES FEW OR NO CLOUDS BELOW 12000 FEET WITH NO
SIGNIFICANT WEATHER AND/OR OBSTRUCTIONS TO VISIBILITY.

COZ001>005-013-030-031-240300-
...NORTHWEST COLORADO...

CITY           SKY/WX    TMP DP  RH WIND       PRES   REMARKS
CRAIG          FAIR      43  36  76 CALM      30.05S
HAYDEN         FAIR      45  32  61 SE8       30.06R
MEEKER         FAIR      46  34  62 W17       30.07R
MOUNT WERNER   NOT AVBL
STEAMBOAT SPGS CLOUDY    41  36  82 E7        30.08R
WALDEN           N/A     37  28  70 SE13      30.11R
$$

COZ006>008-011-240300-
...WEST CENTRAL VALLEYS...

CITY           SKY/WX    TMP DP  RH WIND       PRES   REMARKS
GRAND JUNCTION FAIR      48  38  68 NE9       30.03F
MONTROSE       FAIR      46  37  71 NE3       30.11R
EAGLE          FAIR      45  37  76 CALM      30.10S
RIFLE          CLOUDY    45  41  86 W8        30.09R
DELTA          NOT AVBL
NUCLA          FAIR      45  34  65 E9        30.12R
$$

COZ017>023-064>068-240300-
...SOUTHWEST COLORADO...

CITY           SKY/WX    TMP DP  RH WIND       PRES   REMARKS
DURANGO        FAIR      38  34  85 NE9       30.16S
CORTEZ         FAIR      43  37  79 E3        30.10R
PAGOSA SPRINGS FAIR      36  36  97 CALM      30.20S
TELLURIDE      MOCLDY    33  31  92 CALM      30.21F
WOLF CREEK PAS FAIR      21  21 100 MISG      30.28R
$$

COZ009-010-012-014-032>034-037-058>063-240300-
...CENTRAL COLORADO...

CITY           SKY/WX    TMP DP  RH WIND       PRES   REMARKS
ASPEN          FAIR      39  32  76 SW5       30.09F
BUENA VISTA    CLOUDY    38  33  82 N6        30.11F
COPPER MTN     LGT SNOW  28  23  80 MISG      30.21R
BERTHOUD PASS  HAZE      23  10  58 N17       30.20F VSB 1/2 WCI   9
COTTONWOOD PAS CLOUDY    34  32  93 CALM      30.16F
GUNNISON       LGT RAIN  39  32  76 W15G24    30.17R
KREMMLING      CLOUDY    41  32  70 NE6       30.12R
LEADVILLE      CLOUDY    30  25  81 CALM      30.14F
SALIDA         MOCLDY    42  36  79 W7        30.18F
SUNLIGHT       FOG       30  30 100 MISG      30.22R VSB 3/4
WILKERSON PASS LGT SNOW  28  27  93 SW22G37   30.15R VSB 1   WCI  15
$$

COZ069>075-240300-
...SAN LUIS VALLEY/SANGRE DE CRISTO MOUNTAINS...

CITY           SKY/WX    TMP DP  RH WIND       PRES   REMARKS
ALAMOSA        FAIR      38  36  92 SE16G22   30.15S
LA VETA PASS   HVY SNOW  30  30 100 MISG      30.16S VSB 1/4
SAGUACHE       NOT AVBL
$$

COZ035-036-038>040-240300-
...NORTHERN COLORADO FRONT RANGE...

CITY           SKY/WX    TMP DP  RH WIND       PRES   REMARKS
DENVER INTL AP MOCLDY    63  36  36 N3        29.85R
DMNS CITY PARK   N/A     65  31  27 S10G16    29.86R
AURORA         MOCLDY    64  34  32 SW21G28   29.87R
FRONT RANGE AP MOCLDY    64  37  36 NW12      29.86R
ERIE MUNI ARPT FAIR      64  36  34 E10       29.81R
BOULDER MUN AP FAIR      64  32  29 SW15      29.82R
CENTENNIAL     MOCLDY    60  31  33 W20G26    29.90R
BROOMFIELD     MOCLDY    70  32  24 S14G26    29.84R
FORT COLLINS   FAIR      61  36  39 N7        29.78R
LONGMONT       FAIR      68  35  28 S13G21    29.81R
$$

COZ041-046-047-076>085-087-088-240300-
...PIKES PEAK/PALMER DIVIDE AND SOUTHERN FOOTHILLS...

CITY           SKY/WX    TMP DP  RH WIND       PRES   REMARKS
COLO. SPRINGS  MOCLDY    68  29  23 SW21G29   29.87R
A. F. ACADEMY  NOT AVBL
SCHRIEVER AFB  NOT AVBL
ELLICOTT       FAIR     N/A N/A N/A SW18G29   29.87R
FALCON         FAIR      57  30  35 NW16      29.91R
FORT CARSON    NOT AVBL
LIMON          FAIR      74  43  32 S21G26    29.81R
MONUMENT HILL  FAIR      50  30  46 W24G31    29.94R
TRINIDAD       FAIR      66  32  28 SW30G38   29.90R
$$

COZ042>045-048>051-090-091-240300-
...NORTHEAST COLORADO...

CITY           SKY/WX    TMP DP  RH WIND       PRES   REMARKS
GREELEY ARPT   FAIR      61  34  36 N13       29.80R
AKRON          MOCLDY    77  51  40 SE22G35   29.76R
BURLINGTON     FAIR      76  55  48 SE31G40   29.80R
WRAY           FAIR      79  52  38 SE23G31   29.77R
STERLING       FAIR      81  54  39 S17G29    29.71R
HOLYOKE        FAIR      79  52  38 SE17G31   29.76R
FORT MORGAN    MOCLDY    62  40  43 N23G37    29.75R
$$

COZ086-089-092>099-240300-
...SOUTHEAST COLORADO...

CITY           SKY/WX    TMP DP  RH WIND       PRES   REMARKS
PUEBLO         FAIR      65  33  30 W38G45    29.85R
LA JUNTA       FAIR      72  33  24 W30G43    29.83R
LAMAR          LGT RAIN  80  56  43 S29G37    29.76R
SPRINGFIELD    NOT AVBL
$$



USA.gov is the U.S. government's official web portal to all federal, state and local government web resources and services.